Temp
74 74 75 76 76 77 77 77 77 77 77 78 79 79 80 79 80 79 78 80 80 80 81 82 82 82 83 82 82 81 81 81 81 80 80 80 80 79 79 80 80 79 79
75 75 76 76 76 77 78 77 76 76 76 76 77 78 77 78 79 79 80 79 80 80 81 82 82 83 82 82 82 82 82 81 81 80 80 79 79 79 79 79 79 79 79
75 76 76 76 77 77 78 77 77 77 75 76 76 76 76 76 78 78 79 79 79 79 81 81 82 81 82 83 83 82 81 81 81 80 80 79 79 78 79 79 79 79 78
75 75 76 76 77 77 77 77 75 74 74 73 73 74 73 74 76 77 78 78 78 80 79 80 79 81 82 82 83 82 81 81 80 80 80 79 79 79 78 78 78 78 78
77 76 77 77 78 76 76 76 76 75 75 74 75 73 73 73 74 78 76 76 76 77 77 78 79 79 81 81 81 81 82 81 80 80 80 80 79 79 78 78 78 77 77
78 77 77 77 77 77 76 76 76 76 74 72 75 74 73 74 74 74 75 78 76 76 75 74 74 76 77 78 78 78 80 80 80 80 80 80 79 78 78 77 78 77 76
78 77 77 77 77 75 77 76 76 75 73 71 70 71 72 74 74 74 75 75 74 75 74 73 73 73 74 74 75 78 79 79 79 79 79 79 79 78 78 78 76 75 75
77 77 76 76 76 75 75 75 75 73 69 67 66 66 67 70 72 74 72 74 72 73 74 74 72 71 71 72 75 77 77 77 78 78 78 78 78 78 78 77 76 76 75
77 77 77 76 75 74 72 75 74 72 68 66 67 66 65 61 65 71 71 70 70 71 71 70 70 70 70 72 73 74 76 75 76 76 77 77 76 76 76 77 77 76 75
76 77 77 76 75 75 73 74 72 69 68 65 66 68 68 67 65 63 67 68 68 70 69 69 70 70 70 71 72 73 74 74 74 75 75 75 76 75 75 76 76 76 75
76 78 77 76 76 75 75 73 69 68 66 65 65 66 66 67 66 64 61 62 66 67 68 69 69 70 70 69 70 72 73 74 73 73 73 73 74 74 75 76 76 76 77
74 76 77 76 76 76 75 71 69 67 66 66 66 66 66 65 64 61 59 61 62 65 67 69 68 69 70 70 72 72 73 73 72 71 71 71 71 72 72 74 75 76 76
73 74 75 75 76 76 76 71 69 66 66 67 67 67 68 68 65 63 60 61 61 64 66 68 69 69 70 69 69 70 72 71 70 69 69 69 69 70 70 70 71 73 74
75 75 76 76 76 76 75 72 70 69 67 67 68 68 68 68 65 63 61 62 61 61 62 65 67 68 68 68 69 69 69 69 69 69 68 68 68 67 68 68 69 69 70
75 75 75 76 76 76 73 71 71 70 69 70 70 69 68 68 65 63 63 65 63 60 63 66 64 68 68 68 67 69 67 67 68 68 67 66 66 66 65 66 66 66 66
74 75 74 75 75 76 72 71 70 70 70 69 68 68 68 67 66 64 66 64 63 63 59 64 66 65 66 65 67 67 67 67 67 66 66 65 65 63 64 64 65 65 65
73 74 74 74 75 75 72 71 70 71 70 69 69 68 68 67 65 66 66 65 63 61 58 64 63 64 61 62 64 65 66 65 65 65 65 65 63 62 63 63 63 64 65
74 74 74 74 74 75 72 71 71 71 69 69 69 68 67 67 66 66 65 65 63 61 59 58 60 60 60 62 62 61 63 65 64 65 63 63 62 61 61 61 61 62 62
75 74 74 74 74 75 73 72 70 72 70 70 70 68 68 67 66 65 64 64 62 62 59 56 57 59 61 62 61 61 61 61 64 65 63 62 62 61 60 60 61 60 59
74 73 74 75 74 75 72 72 71 70 70 71 70 70 69 67 67 65 64 62 61 60 58 56 55 57 57 61 60 58 57 60 61 64 62 62 61 61 61 61 61 62 58
75 75 75 75 73 71 70 71 70 70 70 70 68 69 69 69 66 65 64 61 59 57 56 54 55 54 57 58 56 58 56 59 60 62 60 58 56 58 62 59 61 64 60
75 76 75 74 70 71 65 65 69 71 70 66 64 67 66 66 64 63 63 63 61 57 55 53 53 54 54 56 56 56 56 54 51 61 56 54 60 58 56 58 61 61 60
76 75 74 71 70 70 63 63 66 69 66 65 65 65 65 65 61 61 60 60 59 59 59 56 53 54 53 55 52 54 55 53 50 55 53 52 59 56 59 60 61 60 59
75 73 71 71 71 69 61 61 64 67 65 66 66 63 61 59 60 59 58 58 57 58 57 58 56 56 55 55 54 54 53 53 53 54 54 49 54 54 56 61 60 59 59
72 71 71 71 68 62 59 60 64 65 63 61 61 61 59 58 58 57 57 56 56 58 58 57 57 57 57 56 58 54 54 51 49 51 54 50 52 52 54 57 57 57 56
71 70 69 67 61 62 57 57 62 63 59 59 57 58 59 58 55 54 56 55 55 56 54 56 57 58 57 56 58 53 52 50 49 49 53 49 50 52 53 57 55 56 56
MSLP
1018.10 1018.01 1017.95 1017.91 1017.81 1017.75 1017.75 1017.60 1017.61 1017.61 1017.58 1017.44 1017.35 1017.15 1016.86 1016.65 1016.52 1016.42 1016.26 1016.08 1016.00 1016.05 1016.05 1016.09 1016.12 1016.16 1016.18 1016.19 1016.28 1016.43 1016.58 1016.65 1016.76 1016.83 1016.94 1017.17 1017.50 1017.57 1017.77 1017.91 1017.93 1018.14 1018.46
1018.10 1018.04 1017.99 1017.78 1017.64 1017.64 1017.59 1017.56 1017.64 1017.66 1017.76 1017.70 1017.40 1017.11 1016.91 1016.62 1016.39 1016.27 1016.10 1016.00 1015.90 1015.80 1015.83 1015.82 1015.90 1015.85 1015.86 1016.00 1016.03 1016.08 1016.10 1016.27 1016.33 1016.34 1016.44 1016.62 1016.66 1016.82 1017.08 1017.35 1017.50 1017.44 1017.58
1018.08 1018.07 1017.91 1017.78 1017.66 1017.68 1017.62 1017.58 1017.70 1017.76 1017.98 1017.85 1017.72 1017.29 1017.04 1016.83 1016.56 1016.36 1016.16 1016.03 1015.89 1015.81 1015.80 1015.68 1015.53 1015.57 1015.44 1015.51 1015.60 1015.65 1015.74 1015.75 1015.82 1015.90 1015.97 1016.11 1016.18 1016.24 1016.35 1016.43 1016.59 1016.78 1017.22
1017.75 1017.90 1017.83 1017.75 1017.56 1017.50 1017.58 1017.60 1018.09 1018.08 1018.05 1018.22 1017.97 1017.65 1017.42 1017.03 1016.79 1016.60 1016.37 1016.24 1016.26 1016.24 1016.18 1015.92 1015.67 1015.52 1015.49 1015.63 1015.47 1015.46 1015.45 1015.51 1015.48 1015.39 1015.48 1015.59 1015.62 1015.66 1015.78 1015.88 1015.99 1016.18 1016.40
1017.50 1017.69 1017.63 1017.58 1017.57 1017.63 1017.64 1017.91 1018.14 1018.46 1018.48 1018.39 1018.29 1018.10 1017.82 1017.48 1017.30 1017.06 1017.00 1016.82 1016.65 1016.56 1016.49 1016.28 1016.27 1016.19 1016.02 1015.88 1015.71 1015.50 1015.31 1015.20 1015.12 1015.07 1015.04 1015.12 1015.14 1015.12 1015.11 1015.29 1015.47 1015.66 1015.82
1017.18 1017.34 1017.36 1017.45 1017.68 1017.73 1017.85 1018.10 1018.44 1018.64 1018.80 1018.81 1018.56 1018.34 1018.17 1017.98 1017.62 1017.46 1017.42 1017.24 1017.12 1016.98 1016.79 1016.64 1016.53 1016.37 1016.19 1016.08 1015.89 1015.58 1015.20 1015.04 1014.85 1014.67 1014.64 1014.68 1014.77 1014.74 1014.68 1014.69 1014.80 1015.01 1015.36
1016.90 1017.04 1017.12 1017.27 1017.55 1017.87 1017.89 1018.19 1018.54 1018.70 1018.84 1019.15 1019.09 1018.44 1018.20 1018.08 1017.96 1017.80 1017.50 1017.35 1017.34 1017.25 1017.09 1016.95 1016.85 1016.82 1016.53 1016.36 1016.09 1015.68 1015.44 1015.10 1014.80 1014.47 1014.21 1014.24 1014.38 1014.37 1014.35 1014.36 1014.43 1014.66 1015.00
1016.57 1016.73 1016.92 1017.20 1017.31 1017.82 1018.10 1018.40 1018.69 1018.97 1019.55 1019.85 1019.94 1019.52 1019.00 1018.58 1018.15 1017.89 1017.79 1017.81 1017.80 1017.69 1017.50 1017.23 1017.20 1016.97 1016.67 1016.38 1016.06 1015.80 1015.63 1015.42 1015.08 1014.69 1014.28 1014.02 1013.88 1013.96 1013.99 1014.00 1014.13 1014.34 1014.61
1016.32 1016.45 1016.62 1016.87 1017.13 1017.54 1017.98 1018.64 1018.69 1019.19 1020.16 1020.78 1020.68 1020.89 1020.24 1019.72 1019.01 1018.19 1017.92 1017.80 1017.74 1017.70 1017.58 1017.83 1017.43 1017.09 1016.80 1016.54 1016.10 1015.79 1015.54 1015.32 1015.11 1014.78 1014.42 1014.18 1014.02 1013.87 1013.79 1013.70 1013.68 1013.90 1014.30
1016.00 1016.08 1016.24 1016.42 1016.66 1016.95 1017.60 1018.31 1019.25 1020.57 1021.00 1021.85 1020.78 1019.88 1020.18 1020.34 1019.64 1019.02 1018.32 1017.99 1017.91 1017.81 1017.62 1017.56 1017.20 1017.01 1016.71 1016.52 1016.38 1015.89 1015.46 1015.14 1014.97 1014.85 1014.59 1014.30 1014.10 1013.88 1013.70 1013.58 1013.48 1013.49 1013.64
1015.62 1015.58 1015.73 1015.91 1016.32 1016.65 1017.13 1018.50 1020.21 1020.94 1021.17 1020.91 1020.08 1019.76 1019.95 1019.55 1019.88 1019.77 1019.10 1018.35 1018.05 1017.84 1017.60 1017.70 1016.89 1016.74 1016.51 1016.36 1016.30 1015.74 1015.27 1014.86 1014.69 1014.58 1014.40 1014.20 1013.95 1013.71 1013.52 1013.30 1013.17 1013.14 1013.24
1015.38 1015.17 1015.30 1015.58 1015.91 1016.24 1016.79 1018.36 1019.13 1018.57 1018.28 1018.91 1019.09 1019.30 1019.70 1019.33 1019.26 1019.60 1019.61 1019.04 1018.20 1017.65 1017.52 1017.33 1016.78 1016.51 1016.10 1015.91 1015.82 1015.43 1014.91 1014.64 1014.49 1014.31 1014.03 1013.82 1013.66 1013.47 1013.24 1012.93 1012.69 1012.52 1012.47
1014.90 1014.84 1015.08 1015.37 1015.61 1015.70 1016.28 1017.22 1018.20 1018.02 1016.96 1017.57 1018.68 1018.30 1018.47 1018.25 1018.82 1019.09 1019.38 1019.14 1018.74 1017.86 1017.60 1016.91 1016.44 1016.31 1015.89 1015.83 1015.56 1015.08 1014.58 1014.28 1014.06 1013.79 1013.43 1013.21 1013.03 1012.88 1012.69 1012.51 1012.18 1011.92 1011.76
1014.00 1014.05 1014.44 1014.79 1014.98 1015.10 1015.57 1016.92 1017.50 1017.80 1017.00 1017.51 1017.96 1018.14 1018.16 1017.96 1018.32 1018.70 1018.91 1018.96 1018.76 1018.32 1018.06 1017.00 1016.18 1015.84 1015.85 1015.59 1015.21 1014.73 1014.30 1013.95 1013.51 1012.96 1012.49 1012.21 1012.08 1012.03 1011.80 1011.63 1011.38 1011.16 1010.99
1013.36 1013.69 1014.12 1014.48 1014.61 1014.60 1015.41 1016.03 1016.15 1016.75 1017.26 1017.01 1016.60 1016.78 1017.36 1017.20 1017.71 1018.08 1018.10 1018.37 1018.72 1018.48 1017.58 1016.93 1016.51 1015.56 1015.53 1015.20 1014.89 1014.26 1013.75 1013.34 1012.94 1012.50 1011.93 1011.50 1011.22 1011.00 1010.69 1010.34 1010.21 1010.12 1010.04
1012.89 1013.27 1013.67 1014.10 1014.15 1014.22 1014.38 1014.49 1014.87 1014.18 1014.74 1015.16 1015.62 1015.52 1016.08 1017.01 1017.46 1017.64 1017.96 1018.14 1018.53 1018.56 1018.09 1017.26 1016.35 1015.80 1015.51 1014.91 1014.39 1013.87 1013.38 1012.88 1012.29 1011.67 1011.08 1010.58 1010.15 1009.90 1009.40 1009.02 1008.80 1008.65 1008.69
1012.38 1012.69 1013.19 1013.36 1013.42 1013.36 1013.51 1014.08 1014.41 1015.16 1015.41 1015.43 1015.35 1015.57 1016.17 1016.64 1017.27 1017.52 1017.79 1018.24 1018.49 1018.45 1017.98 1016.62 1016.55 1015.86 1015.58 1014.87 1014.24 1013.68 1013.02 1012.38 1011.56 1010.70 1010.12 1009.50 1009.09 1008.52 1008.03 1007.58 1007.36 1007.26 1007.28
1011.50 1012.04 1012.36 1012.52 1012.64 1012.34 1012.56 1012.99 1013.84 1013.82 1015.05 1015.04 1015.16 1015.74 1015.95 1016.44 1017.16 1017.62 1017.85 1018.02 1018.16 1018.18 1017.95 1016.96 1016.34 1016.00 1015.37 1014.60 1014.08 1013.34 1012.48 1011.78 1010.96 1009.87 1009.39 1008.66 1007.96 1007.33 1006.86 1006.41 1006.11 1005.96 1005.96
1010.84 1011.33 1011.55 1011.72 1011.62 1011.70 1012.02 1013.02 1013.42 1013.38 1014.28 1014.65 1015.28 1015.60 1016.10 1016.51 1016.82 1017.58 1017.85 1017.82 1017.76 1017.68 1017.64 1017.41 1016.61 1016.11 1015.18 1014.42 1013.58 1013.02 1012.13 1011.05 1010.04 1009.13 1008.39 1007.67 1007.05 1006.29 1005.62 1005.12 1004.80 1004.50 1004.63
1010.22 1010.46 1010.56 1010.76 1011.13 1011.40 1011.01 1012.00 1013.08 1012.82 1013.16 1014.46 1015.35 1015.80 1016.26 1016.61 1017.02 1017.37 1017.62 1017.70 1017.62 1017.40 1017.44 1017.06 1016.64 1015.98 1015.33 1014.24 1013.86 1012.78 1011.39 1010.50 1009.20 1008.19 1007.66 1007.14 1006.34 1005.52 1004.75 1004.20 1003.60 1003.12 1003.29
1009.44 1009.59 1009.86 1010.45 1010.75 1010.52 1009.10 1012.53 1012.86 1012.56 1013.57 1014.57 1015.40 1015.97 1016.53 1016.92 1017.24 1017.64 1017.65 1017.63 1017.52 1017.39 1017.16 1016.88 1016.45 1016.00 1015.18 1014.32 1013.72 1012.93 1012.06 1010.46 1008.85 1007.98 1007.38 1006.57 1005.76 1004.92 1004.11 1003.58 1003.14 1002.51 1002.68
1008.77 1009.02 1009.66 1010.12 1011.07 1011.23 1011.29 1012.92 1012.71 1013.22 1014.11 1014.88 1016.04 1016.46 1016.69 1017.02 1017.55 1017.73 1017.73 1017.57 1017.48 1017.29 1017.01 1016.93 1016.55 1016.08 1015.42 1014.86 1014.11 1013.16 1012.06 1010.61 1009.11 1008.01 1007.58 1006.12 1005.56 1004.73 1004.06 1003.30 1002.80 1002.43 1002.36
1008.27 1008.77 1009.58 1010.26 1010.80 1011.44 1011.36 1012.02 1013.17 1013.85 1014.69 1015.21 1016.00 1016.40 1016.87 1017.42 1017.63 1017.74 1017.66 1017.49 1017.32 1017.19 1016.99 1016.90 1016.66 1016.21 1015.69 1014.93 1014.34 1013.10 1012.09 1011.39 1010.33 1008.86 1008.23 1006.55 1005.51 1004.74 1004.06 1003.30 1002.64 1002.04 1001.93
1008.02 1008.91 1009.57 1010.16 1010.75 1011.40 1011.81 1012.85 1013.51 1014.24 1014.71 1015.44 1016.06 1016.44 1017.05 1017.59 1017.72 1017.72 1017.65 1017.42 1017.28 1016.98 1016.86 1016.78 1016.56 1015.92 1015.56 1014.88 1014.33 1013.69 1012.55 1011.46 1010.32 1009.26 1008.70 1007.34 1005.91 1004.92 1004.15 1003.40 1002.41 1001.70 1001.72
1008.26 1009.14 1009.69 1010.09 1010.93 1011.99 1012.33 1013.06 1013.72 1014.46 1015.16 1015.96 1016.38 1016.70 1017.24 1017.70 1017.86 1017.86 1017.76 1017.69 1017.50 1017.08 1016.74 1016.52 1016.08 1015.49 1015.00 1014.39 1013.91 1013.28 1012.08 1011.43 1009.96 1009.25 1008.88 1008.48 1006.78 1005.70 1004.56 1003.80 1002.80 1002.04 1002.04
1008.57 1009.34 1009.98 1010.62 1011.27 1012.15 1012.75 1013.24 1013.88 1014.78 1015.54 1016.35 1016.79 1017.21 1017.57 1017.69 1017.88 1018.04 1018.08 1018.01 1017.76 1017.51 1017.24 1016.51 1015.93 1015.21 1014.85 1014.26 1013.73 1013.65 1013.11 1012.35 1011.33 1009.96 1009.45 1008.79 1007.38 1006.35 1005.21 1004.70 1004.17 1003.46 1003.51
Wind_Speed
3 3 3 3 3 3 3 3 2 2 3 4 3 3 4 4 3 2 2 7 11 13 13 13 13 12 11 12 12 12 13 14 14 16 17 17 16 17 16 15 16 17 16
3 3 2 3 3 1 2 2 1 2 3 3 4 4 4 4 3 3 2 3 7 11 14 15 15 15 13 12 11 11 12 12 14 15 16 17 17 17 17 17 18 19 18
4 4 3 3 2 2 2 2 2 2 3 3 3 4 4 5 5 4 2 2 3 6 7 8 10 12 12 12 12 11 12 12 13 13 14 15 16 18 18 19 20 18 18
5 4 3 3 3 1 1 2 3 3 3 3 3 4 5 5 5 5 4 5 5 5 6 11 12 11 8 9 9 10 11 12 12 11 12 13 14 15 18 20 21 20 18
5 4 3 3 2 1 0 1 1 1 1 3 4 3 3 3 5 6 6 6 7 6 5 12 15 16 16 14 13 11 11 12 12 12 11 12 12 13 15 18 21 21 18
5 5 4 4 2 2 1 1 1 0 1 3 3 3 2 1 4 4 4 5 6 7 6 6 6 7 13 13 13 12 11 11 10 11 12 12 12 12 12 13 18 19 17
4 4 4 3 2 3 2 2 0 1 3 4 3 4 2 3 3 3 2 3 5 5 5 5 4 4 5 10 11 12 15 13 11 10 11 10 10 11 10 10 13 14 16
4 4 4 5 3 2 3 2 1 1 3 5 3 1 4 4 2 1 1 4 5 4 5 5 5 5 3 4 8 13 15 14 13 13 13 11 9 10 10 10 12 12 8
5 5 5 5 4 3 3 2 2 1 4 6 7 3 4 3 3 1 1 0 2 2 3 3 3 5 5 5 6 8 12 11 13 14 14 14 13 11 9 8 8 13 13
5 6 6 5 5 4 5 2 3 9 11 11 5 2 4 3 3 5 2 3 3 2 4 4 3 4 3 3 9 10 11 9 10 11 13 14 14 14 13 11 9 8 9
5 6 5 5 5 4 4 6 13 15 9 4 9 4 3 2 2 3 4 5 2 1 3 4 3 4 3 4 5 7 12 11 10 10 13 15 15 15 16 16 17 15 13
4 6 5 5 4 4 4 13 14 15 9 10 8 8 7 4 3 3 3 4 5 3 3 4 4 3 3 4 10 17 15 14 12 13 15 17 17 18 19 20 21 22 22
4 6 5 4 4 5 6 12 12 8 9 8 8 6 5 6 3 1 1 2 3 3 3 4 4 4 3 4 8 15 17 16 15 14 16 18 19 21 22 22 24 25 25
7 6 6 5 5 6 7 9 9 6 7 7 8 5 5 3 3 3 3 3 3 2 3 7 2 2 4 6 12 17 9 15 17 19 21 21 21 23 25 25 25 26 26
5 5 5 4 5 6 9 11 9 8 5 8 7 7 4 3 4 4 4 3 3 3 7 4 4 2 6 8 11 11 10 16 21 22 22 23 24 23 28 26 26 25 24
8 6 7 6 6 6 10 11 9 9 11 9 6 6 4 1 5 3 4 3 3 4 5 4 4 6 9 9 11 12 12 20 22 24 24 24 24 28 27 25 25 24 23
7 9 7 8 8 8 10 9 8 7 3 4 4 6 3 4 4 3 2 2 5 4 6 5 3 6 7 10 11 10 11 12 13 25 25 26 25 28 25 22 22 24 25
9 9 9 9 9 11 10 11 8 7 4 4 4 2 3 4 2 3 3 5 4 4 4 10 5 7 8 11 11 12 11 11 13 21 26 27 26 25 23 21 21 21 20
9 7 9 10 13 10 11 8 5 4 4 5 3 5 5 4 4 2 4 3 2 2 2 4 6 4 5 8 10 9 11 13 11 21 22 24 22 22 24 21 20 19 19
8 9 10 11 11 10 8 8 6 6 7 5 5 3 3 4 4 4 2 2 3 4 3 4 5 6 4 7 7 10 13 11 14 12 12 16 22 22 21 20 19 15 14
8 9 9 7 7 4 3 7 6 7 6 5 4 3 3 3 5 3 1 1 3 3 3 4 4 4 7 10 10 9 10 12 15 7 11 10 10 9 9 12 13 11 12
9 9 6 5 6 5 11 5 6 7 6 7 5 4 7 10 8 7 3 2 1 3 3 3 3 6 7 9 7 10 10 12 14 7 14 13 9 9 8 7 15 12 8
8 6 6 8 6 5 13 11 9 6 7 6 6 7 7 5 5 3 4 5 5 7 4 3 4 5 7 7 9 12 12 11 12 13 9 10 8 10 8 7 17 14 5
8 6 8 8 8 6 14 14 13 8 7 6 6 7 7 5 3 4 3 5 6 5 6 5 5 8 8 9 8 7 10 10 10 7 6 5 9 10 6 9 19 11 3
7 8 8 10 10 8 17 16 12 8 9 8 7 7 6 5 5 5 6 6 6 6 8 10 8 8 10 13 10 7 9 11 11 5 5 6 6 7 4 11 12 18 9
9 7 8 9 12 12 13 15 11 7 8 6 6 6 7 6 7 8 5 4 6 6 8 10 9 10 10 10 12 4 6 9 9 5 10 9 7 6 4 6 12 11 10
Wind_Direction
265 275 279 302 306 298 274 261 304 321 317 313 302 315 351 352 312 281 280 286 238 243 249 250 251 257 260 255 250 246 249 248 246 243 244 245 243 242 232 233 232 226 232
264 279 296 287 300 264 248 260 265 323 328 332 338 347 338 329 321 298 282 283 257 249 248 252 252 251 260 261 255 247 250 255 253 251 247 245 239 233 235 230 238 235 223
240 267 279 282 263 261 289 293 4 20 351 337 327 345 334 332 324 324 315 304 321 335 333 314 277 263 259 254 255 241 240 243 253 257 251 247 244 242 228 222 224 236 237
228 250 260 269 280 308 343 45 52 333 346 318 339 352 339 343 350 4 29 37 45 37 19 18 26 22 356 300 273 253 245 251 253 254 256 257 254 247 241 230 224 223 222
218 230 251 269 306 64 340 71 5 327 305 343 353 2 349 23 24 27 39 32 49 41 25 35 33 26 21 9 357 334 283 266 263 264 260 257 259 252 245 240 232 228 225
225 223 248 256 249 227 200 184 200 326 347 358 333 352 314 19 36 32 42 45 46 38 35 40 25 21 15 4 360 347 337 321 300 268 262 261 259 255 258 252 234 225 225
231 225 242 251 231 261 257 202 125 18 14 12 352 328 332 306 334 32 53 52 40 37 41 47 47 22 23 19 13 24 28 20 9 335 288 268 267 263 259 257 226 227 237
246 234 231 240 225 248 287 258 165 44 39 18 356 276 346 345 353 10 35 31 33 13 19 30 30 15 27 15 18 13 6 2 5 357 359 341 282 266 260 245 235 234 236
238 229 233 234 229 186 219 272 180 105 55 22 20 330 329 280 323 315 264 319 18 11 4 6 13 14 16 11 9 350 352 357 359 359 356 353 353 344 316 283 256 228 205
231 234 234 227 227 204 191 208 42 57 60 20 307 223 218 273 290 326 328 309 345 335 334 321 339 354 6 355 342 335 334 341 351 353 352 342 332 329 329 329 322 302 276
229 235 229 234 230 216 186 90 84 82 88 220 248 296 313 219 269 249 298 308 243 222 276 281 314 337 329 330 319 318 323 320 323 326 334 325 314 303 295 290 284 279 269
226 232 232 224 227 217 161 115 119 138 167 220 229 227 239 230 217 217 262 307 304 287 285 266 289 304 311 312 321 323 317 315 325 311 315 315 309 300 290 280 273 267 260
215 225 209 211 211 216 134 140 147 178 186 193 248 231 212 220 165 188 198 279 294 322 304 251 257 299 296 305 314 318 312 317 310 305 302 299 301 300 293 282 273 268 263
220 204 201 200 214 216 145 135 172 205 201 206 261 245 249 219 153 196 202 201 284 278 298 287 282 280 296 316 313 316 306 300 295 295 301 300 293 293 290 281 270 265 260
212 202 195 199 220 222 141 160 184 201 209 203 206 200 230 211 165 209 193 192 192 291 304 300 294 283 317 322 307 309 298 300 300 297 291 289 284 286 290 278 268 260 257
206 195 187 190 205 198 169 185 190 201 174 194 210 178 195 191 196 194 205 198 214 235 269 244 278 303 318 311 309 314 304 300 297 293 289 286 285 293 286 274 266 256 248
190 204 184 187 202 204 186 188 192 223 163 194 192 204 194 173 201 220 217 212 231 213 254 288 274 318 305 308 305 301 293 290 287 287 291 291 296 290 288 281 271 259 249
207 198 191 189 200 214 186 197 174 198 185 189 210 138 208 163 202 220 225 234 231 221 250 292 323 314 301 310 298 306 299 293 288 289 298 294 296 292 286 281 273 260 246
212 190 188 193 206 209 198 183 152 184 166 208 191 207 183 150 196 225 230 262 265 260 269 275 315 293 304 302 313 306 304 300 299 304 301 298 295 295 292 286 279 255 232
201 201 204 207 203 208 216 156 172 175 162 186 213 186 185 190 196 203 200 263 315 319 305 322 301 304 297 318 307 315 322 320 320 319 305 313 308 305 305 299 295 266 218
204 210 215 196 212 148 188 159 166 159 159 157 82 87 112 143 131 142 129 302 310 309 324 323 317 307 321 326 334 321 306 319 329 325 328 321 313 309 318 316 306 292 209
196 213 199 158 119 160 156 115 139 143 142 100 105 114 100 101 93 81 77 76 58 329 337 323 308 321 305 318 315 310 307 331 333 350 332 315 321 322 318 308 319 293 234
187 196 136 121 133 133 135 132 109 107 110 128 156 132 111 96 90 102 55 38 16 10 10 303 296 315 306 322 309 314 322 321 320 319 322 307 329 323 320 324 335 325 229
178 134 125 143 129 128 108 103 108 126 119 112 128 121 112 111 120 100 51 23 359 354 356 341 290 290 279 289 288 298 300 301 305 316 4 305 324 321 330 335 342 321 297
120 123 139 129 116 104 119 130 121 110 104 97 97 102 113 120 114 87 53 18 360 355 339 332 331 322 331 328 332 329 359 339 342 333 360 321 311 316 312 357 359 30 66
120 118 110 101 112 118 127 119 116 114 106 106 84 87 119 118 103 75 64 25 2 351 343 345 352 350 347 333 346 4 343 351 345 333 348 338 326 331 340 15 13 30 45